EZE2AM EGJJ-EGSS

Flight info

Callsign EZE2AM
Flight time N/A
Altitude 15000
Route ORIST L982 TELTU
Aircraft AT72/M-SDFGIRY/S

Departure

Time 2026-05-03 20:15
Airport Jersey Airport (EGJJ)

Arrival

Time N/A
Airport London Stansted Airport (EGSS)
Time Latitude Longitude Altitude Speed Heading
2026-05-03 20:15 49.25163 -2.33582 1708 ft 260 kts 15°
2026-05-03 20:15 49.26884 -2.32835 1702 ft 259 kts 14°
2026-05-03 20:15 49.28617 -2.32049 1695 ft 260 kts 15°
2026-05-03 20:15 49.30364 -2.31317 1701 ft 260 kts 12°
2026-05-03 20:16 49.32137 -2.30753 1694 ft 261 kts
2026-05-03 20:16 49.33928 -2.30297 1687 ft 261 kts
2026-05-03 20:16 49.35677 -2.29875 2114 ft 240 kts
2026-05-03 20:16 49.37225 -2.29472 2942 ft 212 kts
2026-05-03 20:17 49.38602 -2.29095 3715 ft 190 kts
2026-05-03 20:17 49.39843 -2.28752 4439 ft 173 kts
2026-05-03 20:17 49.40981 -2.28436 5108 ft 160 kts
2026-05-03 20:17 49.42048 -2.28143 5669 ft 153 kts
2026-05-03 20:18 49.43085 -2.27854 6161 ft 150 kts
2026-05-03 20:18 49.44121 -2.27559 6633 ft 154 kts
2026-05-03 20:18 49.45188 -2.27257 7172 ft 157 kts
2026-05-03 20:18 49.46257 -2.26951 7732 ft 159 kts
2026-05-03 20:19 49.47342 -2.26633 8303 ft 159 kts
2026-05-03 20:19 49.48432 -2.26310 8867 ft 160 kts
2026-05-03 20:19 49.49525 -2.25992 9423 ft 160 kts
2026-05-03 20:19 49.50620 -2.25680 9968 ft 160 kts
2026-05-03 20:20 49.51719 -2.25373 10504 ft 161 kts
2026-05-03 20:20 49.52899 -2.25037 10639 ft 190 kts
2026-05-03 20:20 49.54312 -2.24602 10624 ft 223 kts 10°
2026-05-03 20:20 49.55925 -2.24128 10610 ft 248 kts
2026-05-03 20:21 49.57689 -2.23646 10599 ft 266 kts
2026-05-03 20:21 49.59557 -2.23130 10592 ft 279 kts
2026-05-03 20:21 49.61502 -2.22585 10585 ft 289 kts
2026-05-03 20:21 49.63501 -2.22024 10586 ft 295 kts
2026-05-03 20:22 49.65539 -2.21451 10570 ft 300 kts
2026-05-03 20:22 49.67603 -2.20869 10578 ft 303 kts
2026-05-03 20:22 49.69686 -2.20276 10581 ft 304 kts
2026-05-03 20:22 49.71665 -2.19192 10581 ft 305 kts 30°
2026-05-03 20:23 49.73389 -2.17252 10584 ft 309 kts 39°
2026-05-03 20:23 49.75030 -2.15101 10582 ft 310 kts 40°
2026-05-03 20:23 49.76678 -2.12934 10580 ft 311 kts 39°
2026-05-03 20:23 49.78368 -2.10830 10579 ft 311 kts 37°
2026-05-03 20:24 49.80084 -2.08773 10579 ft 311 kts 37°
2026-05-03 20:24 49.81791 -2.06704 10590 ft 312 kts 37°
2026-05-03 20:24 49.83473 -2.04659 10601 ft 312 kts 38°
2026-05-03 20:24 49.85175 -2.02588 10621 ft 311 kts 38°
2026-05-03 20:25 49.86855 -2.00542 10888 ft 303 kts 38°
2026-05-03 20:25 49.88496 -1.98539 11110 ft 299 kts 37°
2026-05-03 20:25 49.90123 -1.96554 11334 ft 296 kts 37°
2026-05-03 20:25 49.91733 -1.94585 11558 ft 294 kts 37°
2026-05-03 20:26 49.93334 -1.92625 11783 ft 292 kts 37°
2026-05-03 20:26 49.94927 -1.90675 12009 ft 292 kts 38°
2026-05-03 20:26 49.96521 -1.88722 12234 ft 291 kts 38°
2026-05-03 20:26 49.98108 -1.86776 12459 ft 290 kts 38°
2026-05-03 20:27 49.99691 -1.84825 12687 ft 290 kts 38°
2026-05-03 20:27 50.01373 -1.83127 12909 ft 287 kts 26°
2026-05-03 20:27 50.03181 -1.81813 13135 ft 287 kts 23°
2026-05-03 20:27 50.05001 -1.80536 13359 ft 287 kts 24°
2026-05-03 20:28 50.06805 -1.79191 13592 ft 288 kts 26°
2026-05-03 20:28 50.08593 -1.77770 13804 ft 289 kts 26°
2026-05-03 20:28 50.10383 -1.76342 14039 ft 289 kts 26°
2026-05-03 20:28 50.12174 -1.74925 14276 ft 288 kts 26°
2026-05-03 20:29 50.13808 -1.73215 14488 ft 288 kts 39°
2026-05-03 20:29 50.15304 -1.71135 14713 ft 288 kts 41°
2026-05-03 20:29 50.16792 -1.69017 14849 ft 292 kts 41°
2026-05-03 20:29 50.18334 -1.66919 14925 ft 297 kts 39°
2026-05-03 20:30 50.19940 -1.64846 14955 ft 302 kts 38°
2026-05-03 20:30 50.21040 -1.63434 14966 ft 305 kts 39°
2026-05-03 20:30 50.22661 -1.61332 14974 ft 308 kts 39°
2026-05-03 20:30 50.24320 -1.59176 14979 ft 311 kts 39°
2026-05-03 20:31 50.25989 -1.57001 14981 ft 313 kts 39°
2026-05-03 20:31 50.27668 -1.54810 14982 ft 315 kts 39°
2026-05-03 20:31 50.29368 -1.52630 14983 ft 316 kts 39°
2026-05-03 20:31 50.31067 -1.50429 14983 ft 317 kts 39°